Terminal Aerodrome Forecast
Issued by NWS

Home | Current Version | Previous Version | Text Only | Print | Product List | Glossary On
Versions: 1 2 3 4 5 6 7 8 9 10 11 12 13 14 15
000
FTUS42 KMLB 181528 AAA
TAFSUA
TAF AMD
KSUA 181528Z 1815/1912 24008KT P6SM BKN015
     FM181600 22008KT P6SM BKN025
     FM181900 09009KT P6SM VCTS SCT030CB BKN100
     FM190000 11004KT P6SM VCSH SCT030 BKN080 BKN250
     FM190300 00000KT P6SM FEW030 SCT080 BKN250=

USA.gov is the U.S. government's official web portal to all federal, state and local government web resources and services.